Home > Weather > Islamabad > Past weeks

Flag for Pakistan Weather for the Past 2 Weeks in Islamabad, Pakistan

Now
86 °F

Passing clouds.


Feels Like: 85 °F
Forecast: 64 / 95 °F
Wind: 12 mph from Northeast

Location: Islamabad Airport

Current Time: May 5, 2016 at 9:11:11 PM

Latest Report: May 5, 2016 at 8:00 PM


Visibility: 3 mi

Pressure: 29.83 "Hg (28.02 "Hg at 554m altitude)

Humidity: 38%

Dew Point: 57 °F

Location of IslamabadLocation

Historic Weather in Islamabad — Graph

°F

Islamabad Temperature Yesterday

Maximum temperature yesterday: 82 °F (at 10:30 AM)
Minimum temperature yesterday: 72 °F (at 11:00 PM)
Average temperature yesterday: 79 °F

High & Low Weather Summary for the Past Weeks

 TemperatureHumidityPressure
High106 °F (May 2, 1:00 PM)73% (Apr 23, 3:00 AM)29.95 "Hg (Apr 23, 3:00 AM)
Low59 °F (Apr 24, 6:00 AM)16% (May 1, 3:00 PM)29.62 "Hg (May 2, 5:00 PM)
Average80 °F41%29.78 "Hg
* Reported Apr 20 8:00 PM — May 5 8:00 PM, Islamabad, Weather by CustomWeather, © 2016

Note: Actual official high and low records may vary slightly from our data, if they occured in-between our weather recording intervals... More about our weather records

Advertising

Islamabad Weather History for the Previous 24 Hours

Scroll right to see more
 ConditionsComfort  
Time TempWeatherWind HumidityBarometerVisibility
8:00 PM
Thu, May 5
86 °FPassing clouds.12 mph38%29.83 "Hg3 mi
7:30 PM88 °FPassing clouds.7 mph35%29.83 "Hg3 mi
7:00 PM88 °FPassing clouds.7 mph35%29.83 "Hg3 mi
6:30 PM90 °FHaze.7 mph31%29.83 "Hg3 mi
6:00 PM90 °FHaze.7 mph31%29.83 "Hg3 mi
5:00 PM90 °FHaze.9 mph31%29.83 "Hg3 mi
4:30 PM91 °FScattered clouds.9 mph28%29.83 "Hg3 mi
4:00 PM91 °FScattered clouds.9 mph28%29.83 "Hg3 mi
3:00 PM90 °FScattered clouds.5 mph31%29.86 "Hg2 mi
2:30 PM88 °FScattered clouds.5 mph35%29.86 "Hg2 mi
2:00 PM88 °FScattered clouds.5 mph35%29.86 "Hg2 mi
1:30 PM86 °FScattered clouds.No wind38%29.89 "Hg2 mi
1:00 PM86 °FScattered clouds.No wind38%29.89 "Hg2 mi
12:30 PM84 °FScattered clouds.5 mph45%29.89 "Hg2 mi
12:00 PM84 °FScattered clouds.5 mph45%29.89 "Hg2 mi
11:30 AM84 °FPartly sunny.5 mph45%29.89 "Hg2 mi
11:00 AM84 °FPartly sunny.5 mph45%29.89 "Hg2 mi
10:30 AM81 °FScattered clouds.No wind51%29.89 "Hg2 mi
10:00 AM81 °FScattered clouds.No wind51%29.89 "Hg2 mi
9:30 AM77 °FScattered clouds.No wind57%29.86 "Hg2 mi
9:00 AM77 °FScattered clouds.No wind57%29.86 "Hg2 mi
8:30 AM73 °FScattered clouds.7 mph61%29.86 "Hg2 mi
8:00 AM73 °FScattered clouds.7 mph61%29.86 "Hg2 mi
7:30 AM70 °FScattered clouds.5 mph69%29.86 "Hg2 mi
7:00 AM70 °FBroken clouds.5 mph69%29.86 "Hg2 mi
6:30 AM70 °FBroken clouds.5 mph69%29.83 "Hg2 mi
6:00 AM70 °FBroken clouds.5 mph69%29.83 "Hg2 mi
5:30 AM70 °FBroken clouds.5 mph69%29.83 "Hg3 mi
5:00 AM70 °FPartly cloudy.5 mph69%29.83 "Hg3 mi
4:00 AM70 °FPassing clouds.7 mph69%29.80 "Hg3 mi
3:30 AM70 °FPassing clouds.7 mph69%29.80 "Hg3 mi
3:00 AM70 °FPassing clouds.12 mph69%29.80 "Hg3 mi
2:30 AM70 °FPassing clouds.14 mph69%29.80 "Hg3 mi
2:00 AM70 °FPassing clouds.14 mph69%29.80 "Hg3 mi
1:30 AM70 °FPassing clouds.14 mph69%29.80 "Hg3 mi
1:00 AM70 °FPassing clouds.14 mph69%29.80 "Hg3 mi
12:30 AM70 °FPassing clouds.14 mph64%29.80 "Hg3 mi
12:00 AM70 °FPassing clouds.14 mph64%29.80 "Hg3 mi
11:30 PM
Wed, May 4
72 °FPassing clouds.14 mph61%29.80 "Hg3 mi
11:00 PM72 °FPassing clouds.14 mph61%29.80 "Hg3 mi
10:30 PM73 °FPassing clouds.14 mph57%29.83 "Hg3 mi
Weather by CustomWeather, © 2016

See weather overviewHow to use our weather pages